Wetbulb
53.74 53.86 54.06 54.24 54.17 54.16 54.47 54.32 54.57 54.80 55.12 55.45 56.04 56.24 56.33 56.47 56.37 50.98 45.50 49.56 53.45 59.63 59.79 51.42 49.25 48.21 46.92 44.29 48.10 49.10 40.96 40.14 45.63 47.36 48.65 52.45 50.27 54.07 55.96 53.59 54.88 55.93 56.76 60.40 67.70
54.26 54.11 53.86 54.02 53.87 53.90 54.04 54.23 54.40 54.67 54.92 55.26 55.48 55.82 55.95 56.36 51.12 49.03 55.25 58.52 60.91 60.82 49.45 45.53 44.85 47.66 41.80 43.12 44.20 43.16 38.69 41.69 48.05 51.03 49.44 50.34 50.82 51.65 51.64 51.02 52.59 54.16 57.24 58.75 66.48
54.15 54.23 54.27 54.10 54.05 53.93 54.04 54.10 54.33 54.61 54.63 54.74 55.02 55.38 55.83 55.75 47.92 50.16 61.33 60.98 62.58 59.68 52.04 49.90 48.22 44.82 38.78 40.76 42.25 41.34 40.03 46.38 48.90 49.62 50.52 50.18 50.51 52.08 50.35 49.21 51.49 51.89 54.34 56.70 62.08
53.78 53.96 53.84 53.75 53.62 53.26 53.90 54.02 54.25 54.44 54.39 54.36 54.64 55.42 56.13 51.63 37.34 52.43 62.10 63.62 62.24 56.76 51.53 48.75 43.89 37.15 35.47 36.99 42.16 37.90 42.16 43.79 45.31 47.81 48.06 47.18 49.48 48.47 49.33 49.73 53.44 54.16 55.43 55.93 55.09
53.07 53.53 53.82 53.58 53.39 53.26 53.40 53.26 53.66 54.00 54.13 54.13 54.76 55.59 51.70 43.84 47.47 56.16 64.36 62.33 57.92 54.61 49.39 46.49 40.57 37.46 34.13 36.78 39.74 36.73 40.51 42.57 43.94 43.69 44.26 47.07 46.86 47.94 48.53 51.53 53.31 54.23 55.47 55.16 55.02
52.70 52.85 53.00 53.39 53.21 53.14 53.11 53.21 53.11 53.31 53.65 53.94 54.97 55.92 47.89 35.96 51.80 54.30 57.77 55.44 55.38 50.64 45.74 45.48 42.00 43.10 38.47 37.86 36.89 39.54 39.71 41.18 41.63 42.59 43.26 43.73 45.10 46.81 48.26 51.42 51.44 52.53 52.85 54.59 54.23
53.36 53.15 53.40 53.05 53.04 53.15 52.86 52.76 52.49 52.90 53.79 54.29 55.11 54.06 46.41 41.05 51.15 51.21 54.57 49.67 50.00 50.25 46.26 47.17 46.23 43.16 40.59 38.12 40.29 40.92 37.07 38.57 40.33 41.71 42.81 45.58 42.54 43.70 48.58 50.73 49.28 50.28 51.83 53.64 54.42
54.14 53.64 53.33 53.17 53.16 52.95 53.01 52.71 52.97 53.42 54.01 54.62 55.81 50.41 41.04 50.70 51.40 52.31 47.84 47.78 47.39 48.48 47.16 47.33 46.81 42.75 39.52 40.95 40.19 35.97 34.85 30.02 36.60 39.64 42.61 43.09 38.19 44.99 47.83 47.67 48.21 49.56 50.39 52.38 53.34
53.95 53.83 53.19 53.05 53.03 52.90 52.65 52.87 53.21 53.94 54.60 54.75 48.86 44.89 42.75 55.25 49.95 50.39 47.39 47.02 46.89 47.51 47.26 49.79 45.75 40.99 39.90 34.49 31.54 32.00 26.64 28.93 33.75 38.44 38.54 39.82 37.04 42.93 44.53 44.47 44.53 46.10 47.46 49.99 50.37
52.98 53.29 52.95 52.36 52.80 52.78 52.29 52.56 52.01 52.71 53.68 54.24 51.98 43.60 46.47 46.90 49.09 48.97 48.28 48.62 45.95 45.08 44.55 43.65 38.83 35.80 33.18 31.90 25.76 29.53 28.77 31.98 32.36 37.43 37.31 36.64 37.44 40.29 43.08 43.35 43.02 43.50 44.81 46.05 48.14
52.76 52.70 52.18 51.93 52.03 52.50 49.53 45.19 41.69 40.46 46.74 42.27 45.86 45.88 48.07 50.69 50.74 47.17 49.45 47.19 45.37 41.61 34.86 37.75 33.05 30.09 34.13 35.39 36.86 35.52 33.56 32.42 36.05 39.85 36.44 36.28 37.38 39.66 41.39 41.39 41.37 42.23 43.34 44.61 46.33
51.97 51.66 51.80 52.14 51.96 51.98 47.43 44.56 45.38 44.10 38.25 45.42 45.73 47.39 50.55 48.83 44.34 46.77 49.31 41.79 40.25 34.72 37.33 34.12 30.06 36.56 38.99 37.63 36.07 34.73 31.99 31.97 35.96 40.55 38.48 36.68 36.66 39.91 40.20 40.45 40.94 41.91 42.50 43.47 44.91
51.65 51.59 51.37 51.56 51.59 47.60 44.08 46.92 50.24 45.37 37.34 42.43 46.24 45.85 45.96 47.02 43.77 43.70 45.73 42.47 38.41 35.18 34.77 31.25 35.34 39.44 37.85 35.35 36.09 33.85 32.70 33.52 33.74 38.30 38.49 35.78 34.91 36.28 39.41 40.63 41.78 42.05 42.72 43.13 43.94
51.05 50.93 51.11 51.03 46.59 43.53 45.01 49.24 47.69 45.26 32.60 40.49 42.47 46.10 46.11 43.74 40.89 47.06 47.08 43.38 38.43 35.36 34.90 33.62 37.62 37.19 34.73 34.44 36.89 30.14 37.85 38.19 36.56 32.88 26.35 36.16 25.62 34.67 37.40 37.81 39.40 40.14 40.22 41.31 42.49
50.59 50.82 50.60 50.18 42.75 42.86 47.99 47.20 46.27 45.75 24.48 43.45 41.88 47.17 44.48 40.48 42.41 43.91 47.06 42.38 37.51 36.69 35.49 34.03 34.93 34.41 32.78 35.41 39.10 34.19 39.71 36.80 35.60 31.93 28.59 30.90 25.49 32.65 35.50 36.15 38.00 39.73 40.35 41.40 42.46
50.49 50.74 50.26 47.21 44.70 46.50 47.65 45.66 46.27 34.52 27.51 38.55 42.95 42.21 40.92 40.78 41.46 43.59 43.47 43.67 41.89 36.89 35.83 35.50 39.08 37.11 36.26 40.31 40.05 40.58 35.62 33.43 31.45 28.40 21.20 28.82 28.64 29.93 33.61 35.72 37.12 39.82 43.04 44.99 44.90
50.45 50.40 49.06 48.35 43.37 45.55 45.30 43.95 32.83 27.71 41.50 36.95 37.75 41.01 37.95 37.96 40.14 41.71 39.45 35.87 32.57 28.21 28.00 33.43 33.43 38.69 41.26 35.12 36.76 34.26 27.56 20.80 19.97 19.55 20.61 30.63 27.88 30.74 35.59 37.93 39.71 41.10 42.56 43.82 44.36
49.69 48.99 48.63 48.47 45.93 46.02 43.41 37.35 28.93 37.41 35.55 40.83 40.04 39.79 35.84 38.63 38.30 39.51 36.94 33.03 37.41 34.55 28.69 26.07 26.50 35.29 39.86 35.64 31.77 30.35 29.13 21.86 17.11 19.88 22.44 31.40 24.38 29.75 38.08 41.18 42.91 43.63 43.28 43.86 43.21
48.25 44.86 45.97 48.20 49.14 44.17 39.30 29.99 30.44 36.55 40.47 38.12 39.18 35.99 36.21 37.63 37.38 36.44 34.45 34.52 37.28 35.94 29.13 27.45 29.25 38.78 39.82 39.66 36.86 31.27 27.68 32.42 25.73 26.27 21.73 25.90 30.47 35.24 39.51 40.18 41.38 41.32 42.56 41.28 41.92
41.37 43.34 45.65 49.64 46.45 42.98 35.65 34.16 35.99 41.89 41.68 40.03 32.54 36.05 31.56 33.67 32.80 32.03 32.49 38.36 37.42 39.05 36.35 33.02 26.95 36.18 38.36 38.99 38.74 34.41 35.99 27.75 27.57 21.31 18.73 24.02 25.99 27.80 33.50 35.83 39.47 39.72 39.33 40.48 42.13
41.90 41.49 47.33 45.92 45.16 39.82 30.81 33.74 38.84 42.79 43.12 38.84 35.03 33.49 33.57 32.75 32.32 31.40 33.44 37.37 40.17 38.51 37.12 34.11 30.16 31.50 35.05 32.61 31.04 30.45 27.93 30.03 28.40 28.01 21.06 20.16 24.03 33.17 35.06 37.85 37.76 39.05 40.22 40.15 41.23
38.80 37.40 47.24 44.86 35.67 33.25 32.72 37.80 41.29 40.82 43.40 40.23 39.06 36.77 34.28 34.33 31.88 31.76 32.07 35.95 41.57 39.35 33.26 35.13 30.60 27.13 31.09 37.86 39.50 37.00 32.83 31.73 24.27 22.80 25.31 25.38 25.99 39.48 38.17 38.03 38.27 39.31 41.17 42.30 42.87
39.57 38.12 46.21 43.72 27.90 29.56 34.49 38.23 39.71 39.07 39.63 38.37 36.85 37.19 36.84 32.54 28.92 34.23 35.98 40.96 40.89 38.05 34.65 35.10 30.30 27.30 27.79 31.23 36.21 34.48 35.90 35.90 34.34 32.38 26.21 23.60 25.49 38.60 38.14 38.80 40.01 39.52 41.67 42.88 43.23
38.40 33.05 36.64 36.90 35.33 32.30 32.45 34.47 35.99 41.95 39.45 38.91 37.33 37.34 34.61 32.63 34.07 31.79 33.47 38.41 39.33 38.64 44.01 40.39 34.78 31.45 25.75 29.20 34.06 32.00 33.99 35.64 33.69 28.90 26.71 27.28 29.38 34.74 37.16 37.79 39.13 40.04 41.07 41.49 43.65
36.14 32.84 33.93 28.77 30.82 31.62 32.11 35.10 34.31 34.01 38.12 36.96 34.49 35.39 33.13 28.83 30.61 30.53 33.41 34.82 37.42 41.20 38.70 38.28 32.18 33.52 34.24 34.73 34.76 33.50 32.85 33.71 32.57 33.64 30.10 30.63 30.27 34.05 36.83 37.39 38.88 41.76 42.83 43.09 44.48
33.49 32.28 33.93 31.74 33.25 31.76 32.71 31.51 33.10 35.65 35.36 34.26 32.20 35.27 33.44 29.64 31.84 30.84 31.80 31.15 31.77 35.76 35.45 39.06 30.56 34.15 31.45 33.93 33.68 31.46 33.57 34.13 34.33 34.75 33.79 33.58 32.30 38.86 39.98 41.33 42.27 42.67 44.03 43.35 44.57
37.85 37.58 37.90 31.91 30.74 28.69 29.64 31.97 33.01 34.67 36.55 38.01 35.37 32.80 32.35 34.86 36.85 37.79 37.86 37.57 36.31 33.83 31.79 33.45 34.79 32.63 26.82 32.06 31.15 27.81 34.21 35.63 35.51 36.85 35.89 30.25 35.15 38.78 37.49 38.62 39.10 40.38 43.99 44.55 46.32
MSLP
1019.63 1019.21 1018.83 1018.47 1018.13 1017.78 1017.40 1017.08 1016.72 1016.35 1015.92 1015.49 1015.07 1014.68 1014.30 1013.89 1013.24 1012.68 1011.76 1010.05 1009.95 1009.79 1010.02 1009.79 1009.43 1009.14 1008.98 1009.04 1008.73 1008.70 1009.35 1008.98 1008.46 1007.46 1006.45 1005.71 1005.55 1004.65 1004.23 1004.05 1003.58 1003.54 1003.02 1002.26 1001.75
1019.49 1019.03 1018.62 1018.26 1017.90 1017.56 1017.20 1016.84 1016.48 1016.10 1015.74 1015.36 1014.96 1014.54 1014.11 1013.64 1013.07 1011.92 1009.63 1009.52 1009.61 1009.81 1010.19 1009.91 1009.51 1009.13 1009.03 1008.96 1008.70 1008.87 1009.11 1008.64 1008.08 1007.36 1007.03 1006.02 1005.23 1005.15 1004.66 1004.28 1003.49 1003.22 1002.67 1002.46 1002.66
1019.33 1018.86 1018.41 1018.02 1017.69 1017.29 1016.87 1016.50 1016.17 1015.86 1015.55 1015.24 1014.82 1014.35 1014.00 1013.60 1012.93 1010.05 1008.76 1009.32 1009.63 1009.91 1010.29 1009.93 1009.67 1009.50 1009.27 1008.97 1009.15 1008.93 1008.41 1008.30 1007.81 1007.43 1007.38 1006.43 1005.22 1005.36 1005.06 1003.61 1003.86 1003.64 1003.04 1002.59 1002.41
1019.14 1018.65 1018.17 1017.74 1017.37 1017.03 1016.61 1016.16 1015.82 1015.53 1015.28 1015.01 1014.61 1014.17 1013.79 1013.65 1012.04 1009.06 1008.65 1009.18 1009.67 1009.98 1010.30 1009.83 1009.73 1009.77 1009.81 1009.72 1009.24 1008.99 1008.47 1008.25 1008.01 1007.67 1007.58 1006.74 1006.04 1004.94 1004.78 1002.79 1004.14 1003.62 1003.42 1002.98 1002.62
1018.88 1018.35 1017.89 1017.45 1017.03 1016.63 1016.27 1015.82 1015.48 1015.25 1014.96 1014.71 1014.41 1014.10 1013.74 1013.12 1010.97 1008.54 1008.68 1009.33 1009.67 1009.97 1009.93 1009.78 1009.80 1010.00 1010.01 1009.98 1009.58 1009.29 1009.06 1008.75 1008.66 1008.16 1007.68 1006.96 1006.05 1005.48 1003.32 1002.83 1004.07 1003.58 1003.50 1003.30 1002.84
1018.73 1018.20 1017.67 1017.13 1016.56 1016.13 1015.77 1015.44 1015.18 1014.92 1014.69 1014.41 1014.19 1014.02 1013.85 1012.21 1009.00 1008.80 1009.13 1009.59 1009.64 1009.84 1009.63 1009.56 1009.44 1009.47 1009.86 1010.04 1010.09 1009.67 1009.61 1009.30 1008.80 1008.25 1007.54 1006.85 1005.62 1005.31 1001.87 1003.29 1003.56 1003.51 1003.24 1002.90 1002.95
1018.51 1017.99 1017.41 1016.82 1016.21 1015.67 1015.24 1014.87 1014.67 1014.51 1014.32 1014.10 1013.97 1013.88 1013.49 1010.86 1009.20 1009.18 1009.15 1009.09 1009.05 1009.21 1009.22 1008.95 1008.94 1009.27 1009.62 1009.90 1009.97 1009.83 1009.74 1009.34 1008.60 1007.99 1007.19 1006.62 1005.32 1003.66 1003.11 1003.52 1003.18 1003.55 1003.22 1003.08 1002.68
1018.31 1017.74 1017.16 1016.51 1015.86 1015.24 1014.70 1014.30 1014.06 1013.82 1013.75 1013.78 1013.68 1013.66 1012.22 1009.66 1009.31 1009.14 1008.99 1008.85 1008.46 1008.55 1008.50 1008.47 1008.78 1009.45 1009.96 1010.10 1009.95 1010.13 1010.37 1010.28 1008.84 1008.06 1006.90 1006.46 1003.55 1003.85 1003.98 1003.97 1003.35 1002.46 1003.28 1002.99 1002.67
1018.19 1017.42 1016.81 1016.19 1015.51 1014.84 1014.17 1013.61 1013.26 1012.97 1013.09 1013.48 1013.67 1013.35 1011.23 1009.13 1009.01 1008.28 1008.46 1008.39 1008.18 1008.18 1008.14 1008.35 1008.97 1009.92 1010.45 1011.10 1011.54 1011.35 1011.49 1010.83 1009.75 1008.11 1007.45 1006.64 1004.89 1004.69 1004.50 1004.35 1003.90 1003.28 1003.26 1003.38 1002.94
1018.01 1017.27 1016.53 1015.83 1015.13 1014.43 1013.56 1012.85 1012.70 1012.94 1013.09 1013.34 1013.02 1013.12 1010.66 1009.50 1008.84 1008.15 1008.03 1008.13 1008.31 1008.46 1008.57 1008.90 1009.87 1010.46 1011.29 1011.76 1012.02 1011.80 1011.60 1011.03 1010.14 1008.69 1007.92 1007.02 1005.79 1005.42 1005.10 1004.78 1004.39 1004.18 1003.46 1003.33 1002.95
1017.71 1017.03 1016.30 1015.59 1014.81 1014.17 1013.49 1012.72 1013.00 1012.94 1012.69 1012.07 1011.64 1011.24 1010.28 1009.30 1008.47 1008.06 1007.86 1008.01 1008.45 1009.09 1009.71 1010.02 1010.75 1011.24 1011.23 1011.26 1011.17 1011.36 1011.27 1010.91 1010.15 1009.16 1008.55 1007.58 1006.34 1005.97 1005.39 1005.08 1004.83 1004.21 1004.02 1003.59 1003.42
1017.57 1016.79 1016.02 1015.23 1014.48 1013.90 1013.70 1013.20 1012.47 1012.37 1011.82 1010.75 1010.40 1010.27 1009.54 1009.74 1009.41 1008.30 1007.88 1008.50 1008.93 1009.67 1009.99 1010.66 1010.75 1010.59 1010.60 1010.67 1010.98 1011.05 1011.05 1010.92 1010.26 1009.67 1009.02 1008.07 1006.43 1005.80 1005.69 1005.22 1004.90 1004.50 1003.99 1003.79 1003.09
1017.30 1016.54 1015.71 1014.79 1014.07 1013.85 1013.53 1012.63 1011.85 1011.96 1011.96 1010.28 1009.57 1009.21 1008.79 1009.17 1008.99 1008.04 1008.06 1008.38 1009.06 1009.75 1010.25 1010.80 1010.38 1010.14 1010.36 1010.49 1010.73 1010.92 1011.06 1011.07 1010.96 1010.16 1009.39 1008.35 1005.91 1005.91 1005.43 1005.05 1004.79 1004.48 1004.12 1003.68 1003.34
1017.00 1016.21 1015.45 1014.52 1013.99 1013.90 1012.97 1012.07 1011.75 1011.82 1011.69 1010.11 1009.00 1008.05 1008.11 1008.33 1008.34 1007.52 1007.60 1008.46 1009.03 1009.54 1010.12 1010.37 1009.84 1009.96 1010.05 1010.32 1010.66 1010.86 1010.86 1011.09 1011.18 1011.21 1010.76 1009.98 1007.14 1006.01 1005.64 1005.16 1004.83 1004.56 1004.39 1003.78 1003.34
1016.55 1015.79 1015.15 1014.96 1014.63 1013.74 1012.52 1012.05 1011.70 1011.83 1011.05 1009.42 1008.40 1007.57 1008.00 1008.49 1008.14 1007.42 1007.36 1008.06 1008.73 1009.24 1010.09 1009.95 1009.83 1009.89 1010.01 1009.97 1010.27 1010.63 1010.79 1011.36 1011.60 1011.67 1011.40 1010.46 1009.80 1004.45 1005.24 1005.18 1005.07 1004.58 1004.19 1004.11 1003.93
1015.83 1015.16 1014.69 1014.58 1014.60 1012.98 1012.37 1012.02 1011.91 1012.27 1010.86 1009.38 1008.60 1008.28 1008.54 1008.47 1008.33 1007.85 1007.62 1007.86 1008.48 1009.44 1009.98 1009.99 1009.58 1009.66 1009.55 1009.71 1010.10 1010.48 1011.17 1011.77 1011.97 1012.10 1011.72 1010.41 1009.64 1004.73 1005.28 1004.64 1004.40 1004.27 1004.41 1004.27 1004.00
1015.23 1014.26 1014.15 1013.97 1013.43 1012.63 1012.32 1012.48 1012.92 1012.25 1010.90 1010.42 1009.65 1009.25 1009.39 1009.46 1009.39 1009.07 1008.65 1008.89 1009.55 1010.20 1010.39 1010.31 1009.95 1009.81 1009.77 1010.06 1010.41 1011.13 1012.19 1013.16 1013.42 1013.01 1011.89 1010.42 1009.85 1006.45 1005.20 1004.73 1004.53 1004.59 1004.33 1004.14 1003.88
1014.81 1013.95 1013.81 1013.33 1012.88 1012.86 1012.89 1013.30 1013.35 1012.49 1011.35 1010.55 1010.17 1009.75 1010.17 1010.27 1010.32 1010.20 1009.99 1010.42 1010.65 1010.74 1011.14 1011.27 1010.87 1010.10 1010.11 1010.26 1010.68 1011.30 1012.33 1013.62 1013.77 1013.48 1012.11 1010.76 1009.00 1006.20 1004.85 1004.53 1004.57 1004.49 1004.34 1004.05 1003.74
1014.59 1014.15 1013.83 1012.84 1012.66 1013.05 1013.78 1013.91 1013.50 1012.74 1011.87 1010.87 1010.48 1010.52 1010.82 1011.12 1011.22 1011.12 1011.09 1010.92 1011.04 1011.22 1011.71 1011.92 1011.32 1010.45 1010.10 1009.99 1010.53 1011.14 1012.10 1012.10 1013.21 1013.20 1012.70 1010.30 1007.98 1006.18 1005.01 1004.51 1004.42 1004.25 1004.06 1003.67 1003.11
1015.69 1015.18 1013.75 1012.59 1012.63 1013.36 1014.33 1014.41 1013.49 1012.62 1011.83 1011.07 1011.08 1011.16 1011.44 1011.79 1011.99 1012.08 1011.72 1011.09 1011.33 1011.50 1011.64 1012.21 1011.77 1010.83 1010.27 1010.06 1010.02 1010.44 1011.07 1012.30 1013.64 1013.39 1012.11 1009.46 1008.03 1006.11 1005.11 1004.68 1004.24 1003.89 1003.54 1003.11 1002.67
1016.03 1015.26 1013.62 1012.89 1012.90 1014.27 1015.16 1014.78 1013.48 1012.46 1011.88 1011.41 1011.30 1011.49 1011.94 1012.25 1012.37 1012.46 1011.97 1011.32 1011.28 1011.48 1011.75 1012.19 1012.62 1011.63 1010.98 1010.19 1009.69 1010.45 1010.90 1011.75 1012.52 1012.74 1011.59 1009.68 1006.94 1005.16 1004.87 1004.67 1004.35 1003.52 1003.06 1003.00 1002.13
1017.14 1016.18 1013.88 1013.22 1014.48 1015.86 1015.75 1014.79 1013.60 1012.62 1012.01 1011.76 1011.65 1011.91 1012.27 1012.55 1012.66 1012.63 1012.22 1011.48 1011.32 1011.55 1012.02 1012.46 1012.84 1012.51 1011.19 1009.63 1009.60 1010.01 1010.36 1011.07 1011.96 1011.67 1010.90 1009.70 1005.57 1004.24 1004.22 1003.87 1003.90 1003.16 1002.60 1002.00 1001.55
1018.60 1017.29 1014.48 1014.08 1015.92 1016.65 1015.99 1015.01 1013.92 1013.18 1012.80 1012.59 1012.54 1012.69 1012.88 1013.05 1013.23 1012.79 1012.27 1011.58 1011.60 1011.78 1012.05 1012.59 1013.18 1012.92 1011.19 1010.00 1009.66 1009.97 1010.49 1010.51 1010.99 1010.94 1009.86 1009.24 1004.72 1004.36 1004.20 1003.75 1003.21 1003.05 1002.00 1001.32 1000.71
1019.00 1018.60 1017.18 1016.69 1017.30 1017.48 1017.08 1015.69 1014.59 1013.48 1013.38 1013.27 1013.18 1013.14 1013.40 1013.52 1013.41 1013.18 1012.84 1012.21 1011.86 1012.07 1012.17 1012.63 1013.15 1013.16 1012.43 1011.47 1010.94 1010.46 1010.30 1010.34 1010.25 1009.53 1008.55 1007.11 1005.13 1004.45 1004.18 1003.45 1002.77 1002.24 1001.64 1000.76 999.92
1019.71 1020.46 1020.21 1019.15 1018.66 1018.52 1017.93 1016.46 1015.46 1014.74 1014.01 1013.71 1013.68 1013.75 1014.07 1014.14 1013.76 1013.31 1012.93 1012.68 1012.28 1011.96 1012.23 1012.77 1013.00 1012.62 1011.83 1011.29 1010.49 1009.71 1009.25 1008.79 1008.76 1008.23 1007.86 1006.10 1005.19 1004.93 1003.98 1003.23 1002.43 1001.83 1000.49 1000.06 999.09
1020.78 1021.21 1020.65 1020.15 1019.41 1018.82 1017.92 1017.11 1016.42 1015.75 1015.38 1014.55 1014.39 1014.22 1014.22 1014.34 1013.85 1013.18 1013.21 1013.14 1012.76 1012.28 1012.71 1012.93 1012.67 1012.36 1011.09 1010.32 1009.57 1008.53 1007.76 1007.36 1007.12 1006.61 1006.55 1005.94 1004.85 1004.54 1003.53 1003.12 1002.66 1001.81 1000.88 999.69 998.95
1021.06 1021.13 1021.16 1020.56 1019.98 1019.34 1018.27 1017.72 1017.17 1016.91 1015.39 1014.98 1014.85 1014.42 1014.01 1013.48 1013.24 1012.85 1012.48 1012.17 1012.09 1012.16 1012.59 1013.00 1012.81 1012.30 1010.54 1009.84 1009.32 1007.88 1006.66 1006.42 1006.40 1006.11 1006.12 1005.93 1005.41 1004.75 1004.02 1003.77 1003.03 1001.76 1000.89 1000.00 999.55
Wind_Speed
17 17 17 16 16 16 16 16 16 16 16 16 16 17 17 18 19 3 5 9 6 6 3 6 5 3 3 2 3 2 2 6 10 8 3 5 7 2 5 6 8 5 4 15 11
18 17 17 17 17 17 17 16 16 16 16 16 16 17 18 18 6 6 11 9 11 1 3 3 4 5 1 2 2 4 4 8 3 9 8 13 12 15 6 9 10 8 14 13 3
18 19 19 19 18 18 17 17 16 15 15 15 15 17 17 14 4 5 5 10 6 4 3 2 2 2 0 1 3 3 7 3 3 2 5 8 15 11 9 15 1 12 13 14 4
19 19 20 20 19 19 19 17 17 16 15 14 15 16 17 0 1 4 6 9 5 4 3 2 2 2 2 3 4 4 4 1 3 4 6 13 14 18 16 26 8 8 9 8 10
20 20 20 21 20 20 19 18 18 16 15 14 13 12 5 2 9 6 7 5 2 2 4 1 3 2 1 4 6 4 3 4 6 8 7 11 15 17 26 24 7 10 7 9 12
19 20 20 21 22 22 20 19 17 16 15 13 11 9 1 3 3 4 6 4 5 4 3 3 4 4 3 2 1 3 3 7 3 6 5 9 13 5 24 9 8 8 9 9 9
20 21 21 22 22 22 21 20 18 16 13 12 8 2 1 12 3 6 6 6 5 6 3 5 4 2 1 5 2 3 6 5 5 5 6 6 16 24 20 2 10 4 5 8 11
21 20 21 22 22 23 22 21 18 17 13 9 5 2 8 5 2 7 4 6 7 9 3 4 3 3 2 3 8 5 5 5 5 4 7 9 25 10 7 5 12 16 5 7 9
22 22 23 22 23 23 23 21 20 13 8 5 2 2 9 10 2 6 6 3 2 4 4 2 5 3 3 3 5 6 1 2 7 4 5 8 6 4 9 6 7 11 6 5 7
25 23 22 23 23 22 23 19 6 1 3 6 3 2 6 1 5 4 5 5 3 5 6 5 5 2 4 4 3 5 3 4 5 7 3 11 14 7 6 6 8 7 10 6 8
26 24 23 23 23 19 12 4 5 3 3 6 5 4 6 6 5 4 4 1 2 6 2 3 5 3 7 7 7 4 4 6 8 11 7 10 16 11 8 5 8 9 8 8 7
27 27 26 24 23 21 2 4 3 4 7 8 10 9 12 3 5 9 3 3 2 2 2 6 3 6 5 4 2 1 2 4 5 9 9 12 19 13 4 6 6 7 9 8 9
25 25 27 26 26 1 1 3 7 1 2 7 4 4 6 10 7 9 8 4 4 3 4 4 7 4 2 2 4 2 2 4 6 7 5 9 18 8 5 4 6 6 8 8 8
25 24 24 26 2 4 3 3 8 3 4 4 2 5 2 3 4 6 7 7 2 8 4 4 4 3 3 2 3 2 3 4 6 6 4 3 18 14 8 8 5 8 8 11 12
26 26 23 12 4 1 4 8 5 4 4 3 1 3 3 3 4 3 4 3 9 6 5 9 3 5 3 4 3 6 2 1 5 9 3 6 6 13 3 14 10 10 7 7 8
28 26 17 1 1 6 7 7 4 4 1 3 3 5 3 3 5 6 5 3 2 2 3 7 3 5 6 4 4 0 2 4 4 2 3 7 11 24 14 11 7 1 5 8 8
29 25 3 2 2 4 5 4 5 5 6 3 3 5 5 5 6 5 4 4 2 1 3 4 1 1 1 1 5 5 6 5 6 3 6 5 6 20 9 7 2 5 9 8 9
32 14 2 4 3 5 4 6 6 7 3 2 3 7 4 8 3 7 6 3 5 3 2 2 5 4 2 4 6 6 8 6 5 4 9 11 8 10 2 4 5 6 8 9 10
21 4 2 4 2 3 6 6 4 3 5 5 5 3 2 2 2 7 5 1 3 2 3 2 4 4 11 6 6 2 4 7 4 4 3 6 7 9 7 5 4 7 6 10 11
3 4 4 5 3 6 6 1 2 3 7 1 2 2 3 1 1 3 4 1 4 1 2 4 6 8 4 2 7 8 6 4 1 5 8 7 7 11 6 9 8 10 9 11 12
3 4 4 5 5 6 4 3 4 4 5 3 4 3 0 1 2 3 6 4 1 4 2 5 4 4 3 6 9 3 3 1 3 4 5 9 10 6 7 9 10 13 9 11 15
3 3 4 4 5 1 0 3 4 5 5 4 3 1 3 2 3 3 4 4 3 1 2 1 2 4 9 20 15 12 11 8 5 6 5 5 21 5 9 9 8 15 13 15 14
3 4 4 5 3 3 6 5 3 3 3 4 4 3 4 1 3 4 4 5 2 3 2 3 0 6 8 5 5 2 3 1 1 2 8 6 15 1 6 9 13 14 15 16 13
3 4 6 6 2 2 4 5 5 5 2 1 3 1 3 2 4 5 5 6 6 2 4 6 4 7 10 14 13 19 17 17 11 6 7 14 25 18 15 19 20 17 13 13 12
4 1 2 5 2 3 3 3 4 5 3 4 3 1 2 5 4 7 4 6 8 7 2 7 6 8 13 16 19 21 21 20 18 16 11 18 22 14 18 18 18 16 21 12 10
3 3 4 4 4 4 1 1 2 2 3 5 4 6 6 7 9 16 7 3 7 4 7 4 4 4 15 15 15 17 16 16 15 16 16 22 24 17 15 9 12 16 18 13 13
2 0 2 4 4 2 3 1 4 8 6 7 7 6 6 9 6 13 14 14 11 8 7 5 3 3 8 6 12 9 3 3 5 8 7 7 6 8 13 13 15 17 13 11 11
Wind_Direction
346 343 340 337 334 331 328 325 324 325 326 325 326 323 319 325 319 319 236 222 187 237 294 286 281 260 142 216 212 131 150 221 229 254 277 327 350 139 311 274 323 358 314 328 147
345 342 339 335 332 329 326 324 323 323 324 325 323 319 322 331 317 279 240 237 223 247 302 323 337 347 98 216 215 164 194 212 230 237 310 306 297 304 335 325 301 324 332 356 42
343 341 338 336 333 329 326 324 322 320 321 322 320 318 323 324 313 261 204 226 199 178 267 289 307 313 208 144 220 208 238 143 225 306 313 286 295 305 320 290 285 309 321 327 299
342 340 338 336 332 330 325 323 321 318 318 317 317 320 323 175 174 263 195 203 196 147 277 240 60 41 181 220 256 262 269 197 318 270 276 276 297 280 286 269 271 279 285 297 304
340 338 335 332 329 327 323 320 319 315 311 311 314 324 349 341 251 259 194 170 137 171 243 262 88 109 286 313 335 196 295 333 320 303 274 277 266 276 273 276 273 266 266 272 283
336 334 332 330 329 325 322 318 313 307 301 302 308 326 23 283 273 348 113 143 214 198 275 182 189 212 140 286 145 303 271 283 279 275 251 268 281 275 266 301 280 262 257 255 247
336 333 331 331 329 325 321 315 310 302 292 288 295 267 344 240 339 338 166 213 188 192 228 221 176 39 126 315 190 274 324 340 225 220 240 235 273 247 274 301 309 295 295 265 258
333 330 330 330 328 327 319 311 304 294 282 274 274 184 250 238 262 298 150 275 221 203 209 248 169 130 143 306 348 351 60 28 286 296 251 184 256 269 322 315 282 288 234 238 257
331 330 330 329 328 327 319 308 302 290 259 205 132 159 273 309 253 241 174 236 267 286 281 224 107 148 54 76 353 7 279 284 298 262 281 196 303 352 332 2 315 310 342 308 284
331 330 329 329 327 324 320 309 289 67 135 173 226 326 273 277 291 233 201 232 250 316 10 54 51 95 36 74 265 289 290 259 267 293 252 280 279 266 285 302 290 295 309 327 298
330 330 328 328 326 325 332 21 22 6 196 210 202 248 276 308 309 264 234 264 60 60 12 6 73 208 246 219 239 276 282 272 278 287 283 270 286 289 272 265 287 297 297 303 279
328 327 328 326 325 324 141 83 211 226 305 242 239 234 260 69 305 293 120 160 121 273 1 17 293 222 246 292 229 11 321 317 296 325 327 300 285 292 247 251 229 275 298 288 293
326 325 326 324 321 24 302 239 288 331 11 299 209 207 225 148 221 257 149 199 190 208 174 160 244 306 267 13 23 329 143 302 281 315 280 318 291 296 291 259 271 266 274 294 275
326 326 326 327 340 322 272 317 330 106 61 283 270 264 163 174 248 225 194 162 213 219 210 226 271 237 310 276 140 311 269 290 307 353 294 49 290 284 273 274 269 290 277 277 295
326 326 326 321 291 351 299 335 302 64 70 169 120 264 88 182 292 270 170 117 222 201 115 246 228 275 272 221 173 230 283 287 282 274 249 213 255 291 20 286 284 268 313 324 322
329 326 329 106 197 247 314 311 59 50 73 21 23 6 333 260 287 298 183 94 128 183 236 250 237 160 211 200 199 165 345 347 329 302 251 230 213 275 272 255 230 272 293 299 301
332 328 303 178 216 326 325 46 42 65 316 10 333 340 22 332 17 336 353 51 58 354 345 330 304 233 123 5 360 73 55 333 335 339 237 323 316 261 306 281 201 252 291 288 289
331 329 195 230 308 352 43 56 73 249 28 250 312 335 92 16 40 342 8 60 33 79 169 182 311 178 142 207 229 213 159 165 253 263 283 294 247 250 241 157 216 236 263 277 276
330 333 312 278 186 74 65 57 169 348 335 312 317 284 134 38 354 13 337 224 97 37 107 355 268 310 307 271 153 241 171 201 228 285 284 232 277 292 222 247 255 289 274 276 282
350 340 289 306 98 57 71 237 242 14 319 272 171 275 304 90 127 23 295 250 132 199 184 195 279 241 278 21 254 184 187 226 79 263 239 261 258 236 258 283 300 292 277 287 289
21 43 281 354 60 44 103 253 292 320 353 294 240 236 252 299 211 228 240 302 99 207 180 181 176 267 2 220 246 308 252 109 174 183 232 272 257 218 231 232 248 269 276 280 286
355 44 318 24 44 40 31 292 288 314 343 347 52 87 206 244 256 245 242 234 202 194 320 191 148 290 270 271 277 259 247 194 207 242 236 261 262 191 235 243 231 267 282 280 274
2 281 315 69 91 331 308 293 275 296 12 14 351 16 15 307 322 224 269 302 145 31 251 171 135 298 303 355 21 33 308 206 277 172 215 241 268 288 279 270 269 263 281 283 288
37 353 328 34 45 60 346 274 320 302 125 280 260 83 24 305 199 270 286 290 339 267 244 140 199 230 272 280 286 284 272 257 240 236 259 234 272 269 285 288 298 296 278 277 293
29 353 205 310 339 338 268 272 315 354 345 330 328 218 199 272 279 250 251 298 303 271 174 142 241 247 266 270 276 276 278 275 266 259 251 283 269 280 278 287 291 300 286 251 279
72 25 354 297 307 320 290 167 276 347 285 284 235 298 286 226 223 279 287 189 229 251 155 191 266 280 278 262 272 286 279 267 275 267 259 260 268 287 293 314 322 312 319 265 269
323 344 332 286 318 341 250 45 313 326 272 236 313 305 261 259 255 269 254 249 235 201 184 195 220 236 262 328 315 288 233 239 298 288 306 301 318 311 310 315 314 311 309 328 303